Dallas/Ft Worth, TX

11:55 PM CDT on June 27, 2017 (GMT -0500)
Dallas-Fort Worth International

Weather History for KDFW - May, 2014

Change the Weather History Date:

Thursday, May 1, 2014

  Actual Average Record
Temperature  
Mean Temperature 59 °F 70 °F  
Max Temperature 75 °F 80 °F 92 °F (2002)
Min Temperature 42 °F 60 °F 34 °F (1903)
Degree Days  
Heating Degree Days 6 1  
Month to date heating degree days 6 1  
Since 1 July heating degree days 2600 2277  
Cooling Degree Days 0 5  
Month to date cooling degree days 0 5  
Year to date cooling degree days 167 143  
Growing Degree Days 8 (Base 50)    
Moisture  
Dew Point 33 °F    
Average Humidity 45    
Maximum Humidity 70    
Minimum Humidity 19    
Precipitation  
Precipitation 0.00 in 0.15 in 3.15 in (1990)
Month to date precipitation 0.00 0.15  
Year to date precipitation 3.93 11.50  
Snow  
Snow 0.00 in 0.00 in 0.00 in ()
Month to date snowfall 0.0 0.0  
Since 1 July snowfall 2.9 1.6  
Snow Depth 0.00 in    
Sea Level Pressure  
Sea Level Pressure 30.10 in    
Wind  
Wind Speed 8 mph (NW)    
Max Wind Speed 23 mph    
Max Gust Speed 29 mph    
Visibility 10 miles    
Events      
T = Trace of Precipitation, MM = Missing Value Source: NWS Daily Summary

Daily Weather History Graph

Daily Weather History Graph

Search for Another Location

Airport or City:

Trip Planner

Search our weather history database for the weather conditions in past years. The results will help you decide how hot, cold, wet, or windy it might be!

Date:

Astronomy

May. 01, 2014 Rise Set
Actual Time 6:40 AM CDT 8:10 PM CDT
Civil Twilight 6:14 AM CDT 8:36 PM CDT
Nautical Twilight 5:43 AM CDT 9:08 PM CDT
Astronomical Twilight 5:10 AM CDT 9:41 PM CDT
Moon 8:32 AM CDT (5/1) 10:41 PM CDT (5/1)
Length of Visible Light 14h 22m
Length of Day
13h 29m
Waxing Crescent, 7% of the Moon is Illuminated
May 1
Waxing Crescent
May 6
First Quarter
May 14
Full
May 21
Last Quarter
May 28
New

Hourly Weather History & Observations

Time (CDT) Temp. Windchill Dew Point Humidity Pressure Visibility Wind Dir Wind Speed Gust Speed Precip Events Conditions
12:53 AM 53.1 °F - 33.1 °F 47% 30.14 in 10.0 mi NNW 6.9 mph - N/A   Clear
1:53 AM 52.0 °F - 35.1 °F 53% 30.15 in 10.0 mi Calm Calm - N/A   Clear
2:53 AM 50.0 °F - 37.0 °F 61% 30.14 in 10.0 mi West 6.9 mph - N/A   Clear
3:53 AM 48.0 °F - 34.0 °F 58% 30.14 in 10.0 mi WNW 3.5 mph - N/A   Clear
4:53 AM 48.9 °F - 32.0 °F 52% 30.13 in 10.0 mi WNW 6.9 mph - N/A   Clear
5:53 AM 46.0 °F 44.8 °F 34.0 °F 63% 30.13 in 10.0 mi SSW 3.5 mph - N/A   Clear
6:53 AM 44.1 °F 42.5 °F 36.0 °F 73% 30.15 in 10.0 mi SW 3.5 mph - N/A   Partly Cloudy
7:53 AM 51.1 °F - 39.0 °F 63% 30.16 in 10.0 mi North 8.1 mph - N/A   Clear
8:53 AM 55.9 °F - 37.0 °F 49% 30.16 in 10.0 mi NNW 9.2 mph - N/A   Partly Cloudy
9:53 AM 61.0 °F - 33.1 °F 35% 30.16 in 10.0 mi NW 10.4 mph - N/A   Partly Cloudy
10:53 AM 66.9 °F - 30.9 °F 26% 30.15 in 10.0 mi WNW 12.7 mph - N/A   Partly Cloudy
11:53 AM 70.0 °F - 28.9 °F 22% 30.14 in 10.0 mi NW 9.2 mph - N/A   Partly Cloudy
12:53 PM 72.0 °F - 28.9 °F 20% 30.12 in 10.0 mi NW 13.8 mph - N/A   Partly Cloudy
1:53 PM 73.0 °F - 28.9 °F 20% 30.09 in 10.0 mi NNW 15.0 mph 23.0 mph N/A   Scattered Clouds
2:53 PM 73.9 °F - 30.9 °F 21% 30.06 in 10.0 mi North 15.0 mph - N/A   Partly Cloudy
3:53 PM 73.9 °F - 30.0 °F 20% 30.04 in 10.0 mi NNW 16.1 mph 20.7 mph N/A   Partly Cloudy
4:53 PM 73.0 °F - 30.0 °F 20% 30.01 in 10.0 mi Variable 6.9 mph - N/A   Mostly Cloudy
5:53 PM 72.0 °F - 30.0 °F 21% 30.01 in 10.0 mi NNW 13.8 mph - N/A   Mostly Cloudy
6:53 PM 72.0 °F - 28.9 °F 20% 30.01 in 10.0 mi North 9.2 mph - N/A   Mostly Cloudy
7:53 PM 66.9 °F - 30.9 °F 26% 30.03 in 10.0 mi North 9.2 mph - N/A   Mostly Cloudy
8:53 PM 66.9 °F - 33.1 °F 28% 30.04 in 10.0 mi ENE 3.5 mph - N/A   Mostly Cloudy
9:53 PM 64.9 °F - 34.0 °F 32% 30.04 in 10.0 mi Calm Calm - N/A   Mostly Cloudy
10:53 PM 64.0 °F - 35.1 °F 34% 30.04 in 10.0 mi South 3.5 mph - N/A   Mostly Cloudy
11:53 PM 61.0 °F - 36.0 °F 39% 30.04 in 10.0 mi South 5.8 mph - N/A   Mostly Cloudy